{"data":{"norad_id":53861,"intl_designator":"2022-114AV","name":"STARLINK-4781","alt_names":[],"object_type":"PAYLOAD","status":"ACTIVE","operator":null,"country":"US","launch_date":"2022-09-19","launch_site_code":"AFETR","launch_vehicle":null,"mission":null,"orbit_class":"UNKNOWN","rcs_meters":null,"size_class":null,"mass_kg":null,"dimensions":null,"purposes":["comms"],"wikipedia_slug":null,"has_3d_model":false,"image_url":null,"decayed_at":null,"tle_current":{"epoch":"2026-09-20T07:43:52.159872Z","epoch_age_seconds":99717,"freshness":"FRESH","line1":"1 53861U 22114AV  26263.32213148  .00000913  00000+0  41195-4 0  9992","line2":"2 53861  53.1587 118.5972 0001234  90.0224 270.0919 15.31698848222652","mean_motion":15.31698848,"eccentricity":0.0001234,"inclination_deg":53.1587,"raan_deg":118.5972,"arg_perigee_deg":90.0224,"mean_anomaly_deg":270.0919,"bstar":4.1195e-5,"rev_number":22265,"period_min":94.013258668978,"perigee_km":469.89827743488,"apogee_km":471.58858112483,"semimajor_km":6848.8804292799,"source":"CELESTRAK","updated_at":"2026-09-21T09:00:33.025489Z"}}}